Total_Precipitation_Accumulation
0.26 0.56 1.06 1.59 2.83 3.10 2.31 1.28 0.85 0.67 0.62 0.69 0.66 0.66 0.90 1.29 1.83 2.80 2.51 1.82 1.32 1.35 1.68 2.09 2.47 2.48 2.38 2.30 2.37 2.49 2.57 2.69 2.78 3.16 3.62 3.60 3.80 4.07 4.23 4.64 5.02 5.29 5.42 5.38 5.48 5.33 4.92 4.70 4.22
0.51 0.99 1.40 1.96 3.11 3.05 2.24 1.17 0.78 0.57 0.57 0.66 0.73 0.70 0.66 0.83 0.83 1.19 1.75 1.77 1.29 1.36 1.62 1.89 2.14 2.16 2.15 2.07 2.23 2.49 2.63 2.72 2.89 3.17 3.58 3.63 3.79 4.01 4.29 4.65 4.75 5.07 5.20 5.24 5.03 4.70 4.44 4.14 3.77
0.80 1.20 1.68 2.22 2.24 1.98 1.66 1.07 0.73 0.59 0.57 0.71 0.76 0.59 0.66 1.02 0.93 1.19 1.46 1.41 1.23 1.24 1.48 1.89 1.98 1.98 2.04 2.16 2.48 2.74 2.76 2.84 3.04 3.20 3.51 3.72 3.82 3.86 4.27 4.62 4.62 4.75 4.74 4.65 4.39 4.20 4.10 3.72 3.50
0.94 1.27 1.54 1.65 1.23 0.93 0.83 0.76 0.65 0.66 0.67 0.62 0.69 0.76 0.83 1.02 0.98 1.15 1.20 1.11 0.99 1.07 1.25 1.71 1.87 1.72 1.87 2.29 2.57 2.66 2.64 2.68 2.90 3.17 3.48 3.65 3.63 3.80 4.21 4.33 4.28 4.20 4.23 4.22 4.23 4.20 4.01 3.60 3.39
0.91 1.46 1.61 1.13 0.74 0.70 0.69 0.65 0.67 0.76 0.73 0.77 0.87 1.02 1.29 1.26 1.02 1.16 1.26 1.16 1.01 1.09 1.22 1.50 1.68 1.61 1.79 2.15 2.46 2.53 2.49 2.61 2.82 3.15 3.36 3.48 3.56 3.79 4.00 3.86 3.85 3.85 3.80 3.87 4.12 4.27 4.00 3.76 3.75
1.19 1.46 1.26 0.80 0.56 0.61 0.63 0.61 0.63 0.69 0.74 0.92 0.98 1.00 1.45 1.49 1.18 1.24 1.28 1.46 1.25 0.99 1.03 1.23 1.59 1.65 1.76 1.97 2.33 2.57 2.49 2.54 2.68 2.81 3.03 3.15 3.30 3.47 3.54 3.71 3.90 3.86 3.66 3.63 3.79 3.95 3.98 4.19 4.29
1.19 1.30 0.94 0.59 0.47 0.51 0.47 0.49 0.63 0.73 0.87 0.94 0.82 0.92 1.50 1.76 1.43 1.31 1.34 1.36 1.16 0.94 0.97 1.15 1.37 1.51 1.78 2.15 2.42 2.62 2.62 2.68 2.67 2.69 3.00 3.17 3.30 3.27 3.33 3.57 3.78 3.74 3.79 3.60 3.38 3.26 3.23 3.54 3.70
0.83 0.96 0.69 0.51 0.38 0.41 0.32 0.32 0.48 0.70 0.84 0.72 0.73 1.10 1.68 1.63 1.20 1.15 1.26 1.37 1.23 1.10 1.10 1.25 1.39 1.43 1.53 1.89 2.47 2.72 2.87 2.99 3.03 3.11 3.30 3.48 3.72 3.72 3.63 3.39 3.38 3.50 3.57 3.62 3.23 2.95 2.77 2.88 2.82
0.56 0.71 0.51 0.37 0.27 0.30 0.26 0.28 0.38 0.57 0.63 0.69 0.86 1.04 1.24 1.09 0.93 1.13 1.37 1.66 1.74 1.50 1.40 1.45 1.38 1.38 1.47 1.67 2.12 2.60 2.95 3.31 3.51 3.50 3.45 3.64 3.90 3.98 4.04 3.61 3.86 3.81 3.72 3.69 3.36 3.08 2.79 2.72 2.49
0.50 0.61 0.42 0.25 0.20 0.23 0.22 0.29 0.45 0.66 0.82 1.05 1.38 1.46 1.22 1.09 1.05 1.24 1.56 1.78 2.10 1.91 1.62 1.54 1.43 1.45 1.46 1.45 1.85 2.36 2.50 2.91 3.17 3.21 3.19 3.44 3.81 4.07 3.69 4.14 4.47 4.38 4.29 3.99 3.71 3.59 3.05 2.61 2.45
0.32 0.33 0.23 0.16 0.16 0.16 0.21 0.27 0.38 0.58 1.00 1.49 1.61 1.44 1.19 1.30 1.39 1.49 1.85 2.00 1.97 1.83 1.92 1.90 1.75 1.72 1.76 1.98 1.89 2.18 2.54 2.79 2.78 2.74 2.99 3.41 3.44 3.58 3.50 3.82 4.38 4.52 4.54 4.18 3.98 3.83 3.18 3.01 3.29
0.18 0.21 0.15 0.14 0.15 0.15 0.16 0.18 0.31 0.57 1.05 1.21 1.19 1.11 1.13 1.38 1.51 1.68 2.08 2.21 2.25 2.14 2.40 2.56 2.27 2.32 2.32 2.14 2.05 2.15 2.33 2.54 2.71 2.99 3.04 3.19 3.61 3.85 3.70 3.71 3.86 4.19 4.31 4.54 4.24 4.07 3.75 3.56 3.49
0.14 0.14 0.09 0.10 0.12 0.16 0.15 0.21 0.39 0.74 0.94 0.81 0.70 0.95 1.08 1.43 1.80 2.05 2.34 2.24 2.55 2.75 3.03 3.24 2.85 2.82 2.77 2.80 2.77 2.52 2.64 2.73 2.92 3.17 3.35 3.42 3.77 4.07 4.08 3.91 3.85 3.74 3.69 3.95 4.17 4.03 4.07 3.92 3.70
0.12 0.11 0.10 0.11 0.14 0.16 0.22 0.33 0.52 0.82 0.75 0.66 0.82 1.24 1.47 1.48 1.80 2.22 2.39 2.54 2.94 3.16 3.36 3.52 3.42 3.49 3.41 3.25 3.39 3.37 2.97 3.07 3.08 3.20 3.34 3.49 3.74 4.28 4.48 4.27 4.16 3.77 3.55 3.57 3.90 4.00 4.23 4.12 3.87
0.14 0.17 0.21 0.22 0.25 0.24 0.30 0.68 0.77 0.84 0.71 0.74 0.96 1.31 1.68 1.64 1.81 2.14 2.36 2.89 3.62 4.00 3.95 3.99 3.98 4.29 4.21 3.86 3.59 3.33 3.16 3.14 3.37 3.44 3.52 3.56 3.81 4.35 4.43 4.20 3.81 3.48 3.36 3.58 3.68 3.78 4.06 3.85 3.66
0.18 0.31 0.45 0.39 0.30 0.29 0.41 1.04 1.05 0.89 0.99 1.05 1.21 1.38 1.70 1.77 1.84 2.12 2.59 3.39 4.29 4.84 4.76 4.57 4.15 4.55 4.63 4.40 4.23 3.86 3.62 3.67 3.69 3.44 3.58 3.50 3.68 3.66 3.81 3.58 3.27 3.31 3.40 3.57 3.81 3.75 3.87 3.88 3.89
0.32 0.42 0.52 0.49 0.34 0.32 0.45 1.14 1.14 0.85 1.08 1.32 1.22 1.37 1.61 1.81 2.00 2.16 2.73 3.59 4.46 5.30 5.53 5.49 5.37 5.14 4.95 4.77 4.66 4.50 4.38 4.11 3.72 3.56 3.68 3.40 3.06 2.89 3.17 3.23 3.25 3.12 3.28 3.35 3.10 3.52 3.85 3.92 3.90
0.42 0.40 0.44 0.49 0.38 0.38 0.54 0.95 1.03 0.98 1.11 1.25 1.24 1.27 1.41 1.70 2.15 2.28 2.60 3.35 4.30 5.21 5.81 6.00 6.09 5.83 5.38 4.90 4.57 4.52 4.32 4.08 3.79 3.54 3.58 3.15 2.93 2.76 3.13 3.11 3.09 3.02 3.24 3.38 3.42 3.71 3.87 3.56 3.53
0.28 0.30 0.40 0.44 0.37 0.43 0.68 0.98 1.03 1.05 1.26 1.38 1.41 1.37 1.43 1.73 2.18 2.37 2.67 3.15 3.95 4.76 5.49 5.64 6.01 5.62 5.03 4.49 4.06 3.95 3.80 3.50 3.40 3.27 3.22 3.16 2.98 2.96 3.25 3.07 3.19 3.01 3.08 3.08 3.12 3.40 3.56 3.19 3.23
0.21 0.28 0.39 0.39 0.29 0.37 0.72 1.16 1.27 1.25 1.26 1.25 1.30 1.35 1.42 1.78 2.23 2.56 3.08 3.48 3.52 4.10 4.87 4.95 4.66 4.52 4.15 3.81 3.65 3.50 3.47 3.12 2.98 2.89 3.04 2.85 2.74 2.88 2.92 3.10 2.90 2.82 3.00 3.02 3.09 3.38 3.31 2.99 3.21
0.22 0.28 0.32 0.32 0.32 0.43 0.72 1.32 1.66 1.50 1.19 0.96 1.00 1.11 1.28 1.56 2.05 2.47 2.87 3.32 3.34 3.75 3.87 3.56 3.42 3.53 3.52 3.36 3.29 3.19 3.21 3.01 2.80 2.72 2.83 2.70 2.50 2.58 2.65 2.62 2.66 2.80 2.54 2.81 3.12 3.23 3.27 3.23 3.13
0.19 0.17 0.18 0.20 0.34 0.61 0.74 1.60 1.99 1.63 1.22 0.98 1.00 1.16 1.24 1.35 1.52 1.79 2.11 2.54 2.81 2.92 2.80 2.83 2.87 2.95 3.17 3.15 2.98 2.84 2.61 2.55 2.54 2.49 2.59 2.71 2.44 2.29 2.30 2.31 2.53 2.68 2.65 2.99 2.69 2.82 3.11 3.35 3.13
0.14 0.12 0.16 0.25 0.36 0.64 0.85 1.33 1.88 1.73 1.54 1.31 1.18 1.19 1.13 1.12 1.20 1.36 1.40 1.63 1.93 2.20 2.27 2.32 2.71 2.85 2.86 2.86 2.87 2.93 2.65 2.50 2.51 2.67 2.90 2.88 2.53 2.17 2.00 2.17 2.44 2.61 2.68 2.78 2.72 2.84 2.82 2.89 2.90
0.13 0.17 0.30 0.51 0.68 1.10 1.07 1.21 1.75 1.57 1.37 1.32 1.13 0.96 0.92 0.90 0.95 1.15 1.18 1.22 1.39 1.54 1.68 1.85 2.25 2.53 2.57 2.51 2.52 2.57 2.62 2.65 2.51 2.54 2.66 2.60 2.47 2.29 2.09 2.14 2.44 2.56 2.62 2.69 2.74 2.73 2.62 2.69 2.78
0.17 0.29 0.65 1.14 1.48 1.58 1.07 1.05 1.36 1.12 1.09 1.19 0.95 0.70 0.66 0.74 0.77 0.96 0.96 1.02 1.19 1.23 1.31 1.55 1.87 2.08 2.14 2.17 2.25 2.33 2.57 2.57 2.40 2.25 2.36 2.40 2.28 2.21 2.21 2.17 2.57 2.73 2.73 2.66 2.77 2.75 2.67 2.77 2.84
0.18 0.23 0.46 0.77 0.98 1.15 1.14 1.51 1.44 0.95 0.89 0.77 0.62 0.51 0.48 0.63 0.71 0.78 0.73 0.77 0.99 1.11 1.20 1.38 1.54 1.69 1.81 2.00 2.19 2.21 2.38 2.23 2.16 2.38 2.25 2.15 1.97 2.06 2.33 2.48 2.56 2.62 2.66 2.58 2.88 2.67 2.67 2.78 2.80
0.14 0.15 0.20 0.33 0.43 0.80 1.26 1.64 1.40 0.90 0.82 0.67 0.52 0.46 0.50 0.52 0.66 0.69 0.66 0.67 0.76 0.87 1.09 1.39 1.57 1.62 1.65 1.79 1.99 2.04 2.03 2.08 2.23 2.46 2.38 2.18 2.12 2.03 2.31 2.51 2.67 2.63 2.61 2.76 3.00 2.88 2.88 3.00 2.88
0.13 0.16 0.22 0.32 0.48 0.76 1.14 1.52 1.64 1.33 0.96 0.70 0.61 0.61 0.71 0.69 0.74 0.79 0.71 0.72 0.75 0.78 0.96 1.10 1.28 1.54 1.76 1.74 1.72 1.73 1.97 2.05 2.20 2.30 2.20 2.19 2.18 2.23 2.43 2.49 2.49 2.43 2.42 2.62 3.01 2.96 2.96 3.12 3.07
0.14 0.16 0.20 0.26 0.34 0.54 0.97 1.20 1.10 1.07 0.85 0.72 0.73 0.85 0.77 0.71 0.76 0.82 0.67 0.66 0.70 0.80 0.89 1.05 1.24 1.52 1.73 1.65 1.69 1.86 2.04 2.10 2.18 2.33 2.28 2.22 2.24 2.36 2.43 2.46 2.47 2.38 2.27 2.40 2.64 2.71 2.91 3.00 3.06
0.14 0.16 0.20 0.29 0.29 0.29 0.54 0.84 0.68 0.77 0.79 0.88 0.91 0.86 0.82 0.82 0.88 0.97 0.85 0.90 0.93 1.05 1.08 1.16 1.26 1.46 1.58 1.59 1.71 1.87 2.00 2.06 2.16 2.21 2.31 2.36 2.34 2.43 2.50 2.51 2.48 2.28 2.26 2.39 2.49 2.60 2.78 2.89 3.00